| time (UTC) | temp F | wind direction | speed MPH | gust MPH | rain 1hr in | rain 24hr in | rain mn in | humidity % | barometer mb |
| 20260906114531 | 77 | 76 | 1.0 | 3.0 | 0.00 | 0.00 | 0.00 | 86 | 1010.2 |
| 20260906113005 | 76 | 60 | 1.0 | 3.0 | 0.00 | 0.00 | 0.00 | 89 | 1010.2 |
| 20260906111544 | 76 | 59 | 2.0 | 4.0 | 0.00 | 0.00 | 0.00 | 91 | 1009.9 |
| 20260906110013 | 76 | 55 | 2.0 | 5.0 | 0.00 | 0.00 | 0.00 | 92 | 1009.8 |
| 20260906104609 | 76 | 34 | 0.0 | 0.0 | 0.00 | 0.00 | 0.00 | 93 | 1009.6 |
| 20260906103033 | 76 | 26 | 0.0 | 0.0 | 0.00 | 0.00 | 0.00 | 93 | 1009.5 |
| 20260906101602 | 76 | 41 | 0.0 | 3.0 | 0.00 | 0.00 | 0.00 | 93 | 1009.4 |
| 20260906100039 | 77 | 44 | 1.0 | 4.0 | 0.00 | 0.00 | 0.00 | 92 | 1009.4 |
| 20260906094507 | 77 | 17 | 2.0 | 4.0 | 0.00 | 0.00 | 0.00 | 93 | 1009.3 |
| 20260906093058 | 77 | 55 | 0.0 | 0.0 | 0.00 | 0.00 | 0.00 | 92 | 1009.1 |
| 20260906091516 | 77 | 360 | 1.0 | 3.0 | 0.00 | 0.00 | 0.00 | 92 | 1009.2 |
| 20260906090052 | 77 | 138 | 0.0 | 2.0 | 0.00 | 0.00 | 0.00 | 92 | 1009.1 |
| 20260906084530 | 77 | 19 | 1.0 | 4.0 | 0.00 | 0.00 | 0.00 | 92 | 1009.2 |
| 20260906083002 | 77 | 95 | 1.0 | 5.0 | 0.00 | 0.00 | 0.00 | 91 | 1009.1 |
| 20260906081536 | 77 | 13 | 0.0 | 4.0 | 0.00 | 0.00 | 0.00 | 91 | 1009.2 |
| 20260906080008 | 78 | 13 | 3.0 | 7.0 | 0.00 | 0.00 | 0.00 | 90 | 1009.3 |
| 20260906074543 | 78 | 5 | 3.0 | 6.0 | 0.00 | 0.00 | 0.00 | 90 | 1009.2 |
| 20260906073018 | 78 | 51 | 0.0 | 0.0 | 0.00 | 0.00 | 0.00 | 91 | 1009.2 |
| 20260906071544 | 79 | 17 | 0.0 | 0.0 | 0.00 | 0.00 | 0.00 | 91 | 1009.6 |
| 20260906070017 | 79 | 34 | 0.0 | 0.0 | 0.00 | 0.00 | 0.00 | 91 | 1009.6 |
| 20260906064550 | 79 | 355 | 0.0 | 0.0 | 0.00 | 0.00 | 0.00 | 92 | 1010.0 |
| 20260906063025 | 79 | 36 | 0.0 | 0.0 | 0.00 | 0.00 | 0.00 | 92 | 1010.0 |
| 20260906061558 | 80 | 20 | 0.0 | 0.0 | 0.00 | 0.00 | 0.00 | 92 | 1010.0 |
| 20260906060028 | 80 | 36 | 0.0 | 0.0 | 0.00 | 0.00 | 0.00 | 92 | 1010.1 |
| 20260906054607 | 81 | 355 | 0.0 | 0.0 | 0.00 | 0.00 | 0.00 | 92 | 1010.0 |
| 20260906053032 | 81 | 43 | 0.0 | 0.0 | 0.00 | 0.00 | 0.00 | 91 | 1010.1 |
| 20260906051600 | 82 | 355 | 0.0 | 4.0 | 0.00 | 0.00 | 0.00 | 91 | 1010.2 |
| 20260906050033 | 82 | 345 | 2.0 | 6.0 | 0.00 | 0.00 | 0.00 | 91 | 1010.3 |
| 20260906044502 | 82 | 360 | 2.0 | 5.0 | 0.00 | 0.00 | 0.00 | 92 | 1010.4 |
| 20260906043033 | 83 | 32 | 0.0 | 3.0 | 0.00 | 0.00 | 0.00 | 93 | 1010.7 |
| 20260906041507 | 83 | 50 | 1.0 | 4.0 | 0.00 | 0.00 | 0.00 | 93 | 1010.8 |
| 20260906040041 | 83 | 66 | 0.0 | 9.0 | 0.00 | 0.00 | 0.00 | 93 | 1010.6 |
| 20260906034512 | 83 | 281 | 4.0 | 9.0 | 0.00 | 0.00 | 0.00 | 92 | 1010.6 |
| 20260906033101 | 84 | 300 | 5.0 | 13.0 | 0.00 | 0.00 | 0.00 | 92 | 1010.2 |
| 20260906031525 | 83 | 306 | 6.0 | 12.0 | 0.00 | 0.00 | 0.00 | 92 | 1010.4 |
| 20260906030002 | 84 | 312 | 3.0 | 10.0 | 0.00 | 0.00 | 0.00 | 92 | 1010.3 |
| 20260906024542 | 83 | 267 | 4.0 | 10.0 | 0.00 | 0.00 | 0.00 | 92 | 1010.1 |
| 20260906023020 | 84 | 242 | 6.0 | 13.0 | 0.00 | 0.00 | 0.00 | 91 | 1010.0 |
| 20260906021555 | 83 | 276 | 4.0 | 11.0 | 0.00 | 0.00 | 0.00 | 92 | 1009.9 |
| 20260906020032 | 83 | 80 | 0.0 | 1.0 | 0.00 | 0.00 | 0.00 | 92 | 1009.9 |
| 20260906014506 | 83 | 247 | 4.0 | 12.0 | 0.00 | 0.00 | 0.00 | 92 | 1008.5 |
| 20260906013038 | 83 | 278 | 0.0 | 11.0 | 0.00 | 0.00 | 0.00 | 92 | 1008.9 |
| 20260906011509 | 83 | 255 | 2.0 | 12.0 | 0.00 | 0.00 | 0.00 | 91 | 1009.5 |
| 20260906010045 | 83 | 297 | 4.0 | 12.0 | 0.00 | 0.00 | 0.00 | 91 | 1009.9 |
| 20260906004518 | 84 | 287 | 7.0 | 12.0 | 0.00 | 0.00 | 0.00 | 89 | 1010.0 |
| 20260906003058 | 84 | 209 | 8.0 | 12.0 | 0.00 | 0.00 | 0.00 | 89 | 1010.1 |
| 20260906001535 | 84 | 315 | 8.0 | 12.0 | 0.00 | 0.00 | 0.00 | 89 | 1010.3 |
| 20260906000010 | 84 | 259 | 7.0 | 12.0 | 0.00 | 0.00 | 0.00 | 88 | 1010.2 |
| 20260905234602 | 84 | 267 | 7.0 | 12.0 | 0.00 | 0.00 | 0.00 | 88 | 1010.3 |
| 20260905233034 | 85 | 259 | 7.0 | 12.0 | 0.00 | 0.00 | 0.00 | 87 | 1010.2 |
| 20260905231600 | 85 | 271 | 4.0 | 12.0 | 0.00 | 0.00 | 0.00 | 86 | 1010.3 |
| 20260905230046 | 86 | 267 | 3.0 | 11.0 | 0.00 | 0.00 | 0.00 | 86 | 1010.0 |
| 20260905224510 | 88 | 183 | 7.0 | 13.0 | 0.00 | 0.00 | 0.00 | 83 | 1010.0 |
| 20260905223047 | 88 | 298 | 5.0 | 11.0 | 0.00 | 0.00 | 0.00 | 82 | 1009.8 |
| 20260905221532 | 88 | 186 | 3.0 | 11.0 | 0.00 | 0.00 | 0.00 | 83 | 1009.9 |
| 20260905220059 | 89 | 252 | 5.0 | 14.0 | 0.00 | 0.00 | 0.00 | 81 | 1009.8 |
| 20260905214537 | 89 | 313 | 3.0 | 11.0 | 0.00 | 0.00 | 0.00 | 81 | 1009.7 |
| 20260905213007 | 89 | 117 | 5.0 | 11.0 | 0.00 | 0.00 | 0.00 | 80 | 1009.9 |
| 20260905211554 | 90 | 185 | 4.0 | 14.0 | 0.00 | 0.00 | 0.00 | 79 | 1009.6 |
| 20260905210023 | 90 | 240 | 4.0 | 14.0 | 0.00 | 0.00 | 0.00 | 80 | 1009.6 |
| 20260905204500 | 90 | 189 | 5.0 | 10.0 | 0.00 | 0.00 | 0.00 | 81 | 1009.5 |
| 20260905203046 | 90 | 316 | 5.0 | 13.0 | 0.00 | 0.00 | 0.00 | 80 | 1009.2 |
| 20260905201513 | 91 | 278 | 3.0 | 11.0 | 0.00 | 0.00 | 0.00 | 80 | 1009.1 |
| 20260905200059 | 91 | 41 | 4.0 | 14.0 | 0.00 | 0.00 | 0.00 | 80 | 1009.0 |
| 20260905194520 | 91 | 277 | 5.0 | 12.0 | 0.00 | 0.00 | 0.00 | 79 | 1009.3 |
| 20260905193108 | 91 | 81 | 4.0 | 11.0 | 0.00 | 0.00 | 0.00 | 79 | 1009.5 |
| 20260905191525 | 90 | 311 | 4.0 | 11.0 | 0.00 | 0.00 | 0.00 | 80 | 1009.9 |
| 20260905190055 | 88 | 232 | 4.0 | 8.0 | 0.00 | 0.00 | 0.00 | 82 | 1010.4 |
| 20260905184525 | 90 | 74 | 4.0 | 10.0 | 0.00 | 0.00 | 0.00 | 80 | 1010.6 |
| 20260905183101 | 91 | 154 | 3.0 | 12.0 | 0.00 | 0.00 | 0.00 | 78 | 1010.8 |
| 20260905181531 | 91 | 13 | 4.0 | 10.0 | 0.00 | 0.00 | 0.00 | 77 | 1010.8 |
| 20260905180002 | 90 | 40 | 5.0 | 12.0 | 0.00 | 0.00 | 0.00 | 79 | 1011.0 |
| 20260905174531 | 91 | 208 | 4.0 | 10.0 | 0.00 | 0.00 | 0.00 | 78 | 1011.2 |
| 20260905173102 | 91 | 319 | 3.0 | 10.0 | 0.00 | 0.00 | 0.00 | 79 | 1011.5 |
| 20260905171535 | 90 | 240 | 3.0 | 9.0 | 0.00 | 0.00 | 0.00 | 79 | 1011.7 |
| 20260905170004 | 90 | 170 | 3.0 | 9.0 | 0.00 | 0.00 | 0.00 | 81 | 1011.9 |
| 20260905164538 | 90 | 177 | 2.0 | 10.0 | 0.00 | 0.00 | 0.00 | 79 | 1012.0 |
| 20260905163006 | 90 | 221 | 3.0 | 8.0 | 0.00 | 0.00 | 0.00 | 78 | 1012.3 |
| 20260905161535 | 89 | 296 | 4.0 | 7.0 | 0.00 | 0.00 | 0.00 | 74 | 1012.5 |
| 20260905160012 | 88 | 355 | 3.0 | 9.0 | 0.00 | 0.00 | 0.00 | 78 | 1012.6 |
| 20260905154544 | 88 | 190 | 2.0 | 10.0 | 0.00 | 0.00 | 0.00 | 77 | 1012.7 |
| 20260905153001 | 87 | 306 | 3.0 | 8.0 | 0.00 | 0.00 | 0.00 | 79 | 1012.9 |
| 20260905151536 | 87 | 277 | 6.0 | 11.0 | 0.00 | 0.00 | 0.00 | 81 | 1012.9 |
| 20260905150004 | 86 | 319 | 3.0 | 9.0 | 0.00 | 0.00 | 0.00 | 83 | 1013.0 |
| 20260905144538 | 86 | 313 | 3.0 | 12.0 | 0.00 | 0.00 | 0.00 | 83 | 1013.0 |
| 20260905143010 | 85 | 335 | 5.0 | 10.0 | 0.00 | 0.00 | 0.00 | 84 | 1013.2 |
| 20260905141538 | 85 | 292 | 5.0 | 10.0 | 0.00 | 0.00 | 0.00 | 86 | 1013.1 |
| 20260905140005 | 84 | 291 | 4.0 | 6.0 | 0.00 | 0.00 | 0.00 | 88 | 1013.1 |
| 20260905134544 | 83 | 344 | 2.0 | 11.0 | 0.00 | 0.00 | 0.00 | 90 | 1013.2 |
| 20260905133009 | 83 | 324 | 3.0 | 6.0 | 0.00 | 0.00 | 0.00 | 92 | 1013.3 |
| 20260905131543 | 82 | 355 | 3.0 | 6.0 | 0.00 | 0.00 | 0.00 | 92 | 1013.4 |
| 20260905130016 | 82 | 343 | 3.0 | 6.0 | 0.00 | 0.00 | 0.00 | 93 | 1013.4 |
| 20260905124550 | 81 | 344 | 3.0 | 5.0 | 0.00 | 0.00 | 0.00 | 94 | 1013.3 |
| 20260905123025 | 81 | 324 | 2.0 | 5.0 | 0.00 | 0.00 | 0.00 | 95 | 1013.3 |
| 20260905121603 | 80 | 56 | 3.0 | 6.0 | 0.00 | 0.00 | 0.00 | 96 | 1013.3 |
| 20260905120037 | 80 | 360 | 1.0 | 5.0 | 0.00 | 0.00 | 0.00 | 96 | 1013.2 |